Location: Peralejo
(40.5415°N, 4.1259°W)
Time: 19:49:10
(UTC+00:00)

Atlas Centaur 2 - Pass Details

Date: 18 April 2024
Orbit: 458 x 1278 km, 30.4° (Epoch: 17 May)

Event Time Altitude Azimuth Distance (km) Brightness Sun altitude
Rises 21:13:52 0° 246° (WSW) 3,249 5.6 -23.3°
Reaches altitude 10° 21:17:01 10° 233° (SW) 2,159 4.5 -23.8°
Enters shadow 21:18:54 18° 215° (SW) 1,620 3.6 -24.1°
